User: anonymous   Login
Location: Ab? ar R?sh Ba?r?
(24.1861°N, 32.8847°E)
Time: 03:20:05
(UTC+00:00)
Language:

deb Chang Zheng 4 - Orbit

View from above orbital plane
View from above orbital plane
View from above satellite
View from above satellite

Ground track
Ground track

The orbit data is extracted from the following two-line orbital elements,

1 20847U 90081K   22020.78127591  .00005530  00000-0  60682-3 0  9993
2 20847  98.5679  46.7017 0016496  82.6910 277.6178 14.88063260654713
Epoch (UTC): 20 January 2022 18:45:02
Eccentricity: 0.0016496
inclination: 98.5679°
perigee height: 592 km
apogee height: 615 km
right ascension of ascending node: 46.7017°
argument of perigee: 82.6910°
revolutions per day: 14.88063260
mean anomaly at epoch: 277.6178°
orbit number at epoch: 65471

The dashed part of the orbit path shows where the satellite is in the earth's shadow,  

DLR